EHI
0 0 0 0 0 0 0 0 0 0 0 0 0 0 0 0 0 0 0 0 0 0 0 0 0 0 0 0 0 0 1 2 2 3 4 6 6 5 4 3 2 2 2 1
0 0 0 0 0 0 0 0 0 0 0 0 0 0 0 0 0 0 0 0 0 0 0 0 1 1 1 0 0 0 0 1 1 1 2 4 4 4 3 3 2 1 1 0
0 0 0 0 0 0 0 0 0 0 0 0 0 0 0 0 0 0 0 0 0 0 0 1 2 2 1 1 0 0 0 0 0 0 1 3 3 3 3 3 2 1 0 0
0 0 0 0 0 0 0 0 0 0 0 0 0 0 0 0 0 0 0 0 0 0 0 1 1 1 1 1 1 0 0 0 0 1 1 3 3 3 3 3 3 2 1 0
0 0 0 0 0 0 0 0 0 0 0 0 0 0 0 0 0 0 0 0 0 0 0 0 0 0 0 1 1 1 1 1 0 1 2 2 3 3 3 3 3 2 1 0
0 0 0 0 0 0 0 0 0 0 0 0 0 0 0 0 0 0 0 0 0 0 0 0 0 0 0 0 1 2 2 1 0 1 1 1 2 3 3 3 3 2 1 0
0 0 0 0 0 0 0 0 0 0 0 0 0 0 0 0 0 0 0 0 0 0 0 0 0 0 0 0 0 1 1 0 1 1 0 0 1 2 3 3 3 2 1 0
0 0 0 0 0 0 0 0 0 0 0 0 0 0 0 0 0 0 0 0 0 0 0 0 0 1 1 0 0 0 0 0 1 1 1 1 1 2 3 3 2 1 0 0
0 0 0 0 0 0 0 0 0 0 0 0 0 0 0 0 0 0 0 0 0 0 0 0 0 1 2 1 0 0 0 0 1 1 2 3 2 2 3 3 1 0 0 0
0 0 0 0 0 0 0 0 0 0 0 0 0 0 0 0 0 0 0 0 0 0 0 0 0 1 2 2 1 1 1 1 1 1 3 4 3 2 3 2 1 0 0 0
0 0 0 0 0 0 0 0 0 0 0 0 0 0 0 0 0 0 0 0 0 0 0 0 0 0 1 2 2 2 2 2 2 3 3 3 2 2 2 2 1 0 0 0
0 0 0 0 0 0 0 0 0 0 0 0 0 0 0 0 0 0 0 0 0 0 0 0 0 0 0 1 1 2 3 3 3 3 3 3 2 1 1 1 1 0 0 0
0 0 0 0 0 0 0 0 0 0 0 0 0 0 0 0 0 0 0 0 0 0 0 0 0 0 0 0 0 1 2 3 3 3 3 3 1 1 0 0 0 0 0 0
0 0 0 0 0 0 0 0 0 0 0 0 0 0 0 0 0 0 0 0 0 0 0 0 0 0 0 0 0 0 1 1 2 3 3 2 1 0 0 0 0 0 0 0
0 0 0 0 0 0 0 0 0 0 0 0 0 0 0 0 0 0 0 0 0 0 0 0 0 0 0 0 0 0 0 0 1 2 2 2 1 0 0 0 0 0 0 0
0 0 0 0 0 0 0 0 0 0 0 0 0 0 0 0 0 0 0 0 0 1 1 1 0 0 0 0 0 0 0 0 0 1 1 1 1 0 0 0 0 0 0 0
0 0 0 0 0 0 0 0 0 0 0 0 0 0 0 0 0 0 0 0 0 1 2 1 0 0 0 0 0 0 0 0 0 0 0 0 0 0 0 0 0 0 0 0
0 0 0 0 0 0 0 0 0 0 0 0 0 0 0 0 0 0 0 0 0 1 1 1 0 0 0 0 0 0 0 0 0 0 0 0 0 0 0 0 0 0 0 0
0 0 0 0 0 0 0 0 0 0 0 0 0 0 0 0 0 0 0 0 0 0 0 0 0 0 0 0 0 0 0 0 0 0 0 0 0 0 0 0 0 0 0 0
0 0 0 0 0 0 0 0 0 0 0 0 0 0 0 0 0 0 0 0 0 0 0 0 0 0 0 0 0 0 0 0 0 0 0 0 0 0 0 0 0 0 0 0
0 0 0 0 0 0 0 0 0 0 0 0 0 0 0 0 0 0 0 0 0 0 0 0 0 0 0 0 0 0 0 0 0 0 0 0 0 0 0 0 0 0 0 0
0 0 0 0 0 0 0 0 0 0 0 0 0 0 0 0 0 0 0 0 0 0 0 0 0 0 0 0 0 0 0 0 0 0 0 0 0 0 0 0 0 0 0 0
0 0 0 0 0 0 0 0 0 0 0 0 0 0 0 0 0 0 0 0 0 0 0 0 0 0 0 0 0 0 0 0 0 0 0 0 0 0 0 1 1 0 0 0
0 0 0 0 0 0 0 0 0 0 0 0 0 0 0 0 0 0 0 0 0 0 0 0 0 0 0 0 0 0 0 0 0 0 0 0 0 0 0 1 2 1 0 0
0 0 0 0 0 0 0 0 0 0 0 0 0 0 0 0 0 0 0 0 0 0 0 0 0 0 0 0 0 0 0 0 0 0 0 0 0 0 0 1 1 1 0 0
0 0 0 0 0 0 0 0 0 0 0 0 0 0 0 0 0 0 0 0 0 0 0 0 0 0 0 0 0 0 0 0 0 0 0 0 0 0 0 0 1 0 0 0
Wind_Speed
3 5 3 1 2 3 2 3 2 0 0 3 3 3 1 2 4 4 4 4 3 3 2 2 2 2 2 2 2 3 3 3 2 2 2 2 2 2 2 2 3 2 2 2
6 4 1 1 2 3 4 3 1 1 1 3 3 3 1 1 3 3 3 4 3 3 3 3 3 3 2 2 2 2 3 3 3 2 2 1 2 2 2 2 2 2 2 2
4 1 2 4 4 4 4 3 2 2 1 4 4 3 4 4 3 3 3 2 2 2 2 3 3 3 3 2 2 2 3 3 3 3 2 2 2 2 3 2 2 1 2 1
3 1 3 4 3 4 3 1 3 4 5 2 4 3 3 3 4 3 4 4 3 3 2 2 2 3 3 3 2 3 3 3 3 3 3 4 3 2 2 2 2 2 1 1
3 2 3 3 2 4 2 1 3 5 6 5 4 5 2 3 3 3 3 4 3 3 2 2 2 2 2 2 2 2 3 3 3 3 3 3 3 2 2 2 3 2 2 1
2 2 2 1 1 2 2 3 4 5 6 6 3 5 2 2 1 1 3 4 3 3 3 2 2 2 2 2 2 3 3 3 3 3 3 4 3 3 3 3 2 2 2 1
5 4 2 2 3 4 4 5 4 5 5 2 1 4 2 2 1 1 1 2 3 3 3 3 3 3 2 3 3 3 3 3 3 4 4 4 4 4 3 3 3 2 2 1
5 4 3 2 3 3 4 6 4 4 3 1 3 4 1 2 1 0 1 2 2 3 3 2 2 3 3 4 4 4 5 4 4 4 4 4 4 3 2 3 3 3 2 2
3 2 3 1 2 4 4 4 3 5 5 5 3 2 1 2 1 2 2 2 2 2 3 2 2 3 3 4 4 5 6 5 5 4 4 4 4 4 3 4 3 2 2 2
4 4 2 2 4 2 3 2 4 5 5 6 4 4 2 2 2 1 1 1 1 1 2 2 2 2 3 3 4 4 5 5 5 5 4 3 4 4 4 3 3 3 3 3
5 6 4 4 4 3 4 4 4 4 5 6 5 1 1 1 2 2 2 2 1 2 2 2 2 2 1 2 3 4 4 5 4 5 5 4 4 4 4 3 4 3 3 4
3 6 5 4 2 2 4 4 5 6 5 6 6 3 2 1 1 2 2 1 1 1 2 2 2 2 1 1 2 2 3 4 4 4 4 5 4 4 4 4 4 4 4 3
3 6 6 6 6 5 4 4 5 6 6 6 8 3 3 0 1 1 2 2 1 2 2 2 2 2 1 1 1 1 2 2 3 3 4 5 5 5 4 4 4 4 4 4
4 6 7 7 4 3 5 6 7 8 7 8 10 9 5 5 4 3 2 2 2 2 3 3 2 2 1 1 1 1 2 2 2 3 3 4 4 4 4 4 4 4 4 4
4 6 6 7 7 7 9 9 9 11 11 11 10 10 8 7 6 4 3 2 2 2 2 2 3 2 2 1 0 1 1 1 2 2 3 3 3 3 3 3 3 3 3 3
4 6 6 7 6 7 10 11 10 11 11 11 11 10 7 5 3 3 3 2 3 3 3 3 3 2 2 2 1 1 1 1 2 2 2 2 2 3 3 3 3 3 2 3
4 6 6 6 4 7 9 7 8 7 6 8 9 6 4 4 3 3 2 2 2 2 3 3 3 3 2 2 1 2 1 1 2 2 2 2 2 3 3 3 3 3 3 3
6 6 5 6 6 9 1 2 3 6 6 6 7 5 5 5 4 3 2 3 3 3 2 2 2 2 2 2 2 2 1 1 2 2 2 2 2 3 3 3 3 3 3 3
7 6 5 6 7 8 4 2 3 5 5 4 6 5 4 3 3 3 1 2 3 3 3 2 2 2 2 2 2 2 2 2 2 2 2 2 3 3 3 3 3 3 3 3
4 6 6 6 8 7 1 3 0 4 5 0 2 3 3 3 5 2 2 3 3 2 2 2 1 1 1 1 1 2 2 2 3 3 3 2 3 3 3 4 3 2 3 3
6 6 8 9 8 7 1 2 3 6 2 3 3 4 4 5 5 4 3 3 2 2 1 1 1 1 1 1 2 2 3 3 3 2 2 2 3 3 3 3 2 3 3 3
6 6 7 7 8 5 4 3 4 3 4 4 4 4 5 5 4 3 3 2 2 2 1 1 1 1 1 2 2 2 2 2 2 2 2 3 3 2 3 3 3 3 3 3
6 5 3 5 4 3 2 2 2 4 5 5 5 4 4 4 4 3 3 2 2 2 2 2 2 2 2 2 2 2 2 2 2 2 3 3 3 3 3 3 3 3 3 3
4 3 5 6 6 4 4 4 4 4 5 6 5 4 4 4 4 3 3 3 2 2 2 2 3 3 2 2 2 2 2 2 3 3 3 3 3 3 3 3 3 3 3 4
5 5 6 8 7 5 5 5 5 4 4 5 4 4 4 4 4 4 3 3 2 2 2 2 3 3 2 2 1 2 2 2 3 3 3 3 3 2 2 2 2 3 3 3
7 8 8 8 6 6 5 4 4 5 5 4 4 4 4 4 4 3 3 2 2 2 2 2 3 3 2 2 2 2 2 3 3 3 3 2 2 2 2 3 2 1 1 0
Wind_Direction
194 214 206 210 247 288 262 256 261 7 102 250 250 272 292 186 202 204 194 191 182 163 138 132 137 141 152 153 161 151 156 154 150 143 144 136 129 117 103 94 93 99 103 117
197 205 216 227 202 224 225 240 260 124 119 255 270 275 258 157 181 199 195 187 181 168 152 147 154 148 150 149 164 168 160 158 157 157 159 150 123 117 107 103 96 97 122 136
218 104 162 198 196 214 226 259 284 293 248 217 262 227 179 142 152 166 191 197 186 181 177 161 169 163 161 161 171 176 171 161 165 164 155 138 123 138 139 127 112 100 119 144
205 166 188 202 207 248 236 271 265 255 256 240 264 271 175 165 163 168 181 189 191 177 171 168 177 178 172 174 180 181 173 167 166 165 168 162 165 165 157 143 137 136 130 145
174 184 209 217 231 251 293 300 252 251 259 257 235 263 180 165 194 167 167 180 187 183 178 184 185 191 182 167 174 182 173 171 172 176 175 191 182 175 153 149 149 151 145 145
186 178 245 268 198 207 180 202 202 221 240 243 239 261 235 160 260 171 163 172 180 178 180 189 183 189 185 175 177 180 177 174 179 192 192 195 183 184 175 176 166 169 158 169
191 180 180 221 203 178 223 252 238 218 218 230 138 257 267 54 18 319 205 180 171 175 182 183 187 194 196 193 186 186 183 183 186 198 206 201 197 200 202 194 186 197 184 186
223 194 169 216 251 245 232 257 276 280 279 275 214 246 60 54 19 256 211 186 171 179 189 192 200 209 206 202 201 195 194 192 191 202 215 214 200 205 210 213 204 205 202 196
251 204 143 179 249 252 226 229 289 282 277 265 228 216 200 152 166 141 144 163 172 189 197 199 201 214 213 204 203 205 201 199 195 205 215 215 204 206 207 213 208 207 211 207
272 255 168 155 187 159 285 213 217 248 271 266 247 248 252 183 205 183 186 200 190 200 200 197 196 209 214 208 208 210 210 205 200 205 210 211 208 205 212 213 212 214 214 215
253 251 200 186 213 213 186 202 231 243 267 282 278 263 61 283 265 249 238 229 229 225 211 198 195 191 205 209 208 210 211 212 207 208 209 205 205 204 204 212 219 222 224 219
237 261 245 208 144 282 245 244 240 255 248 256 280 286 80 267 273 276 273 242 223 206 183 171 170 161 179 203 217 220 217 210 208 213 211 207 200 201 206 209 213 216 218 222
207 251 252 204 179 184 213 227 243 261 264 250 255 255 107 238 264 277 284 259 216 184 171 169 168 172 173 188 220 247 237 220 204 202 208 208 204 202 203 210 210 216 216 215
248 249 260 269 290 251 235 228 229 242 253 256 254 272 279 294 293 289 275 258 220 195 188 186 191 197 191 193 210 252 243 229 205 193 202 209 212 207 207 207 211 215 214 214
249 257 257 271 277 259 258 254 240 242 256 266 274 278 291 298 300 291 267 243 226 219 215 213 216 219 221 221 231 263 251 235 209 194 202 206 212 211 211 202 204 208 211 217
249 257 257 257 251 254 257 255 249 248 254 257 266 274 298 308 302 281 259 235 233 241 244 237 230 226 235 236 240 250 235 230 205 203 210 203 203 204 209 206 198 201 205 212
232 248 254 258 254 259 250 245 235 228 235 251 262 282 310 304 303 297 288 253 254 264 271 259 244 235 243 249 251 252 241 220 210 213 208 202 198 204 211 202 198 202 206 210
242 242 253 264 254 248 298 66 253 247 255 258 268 283 291 302 303 296 283 270 267 268 274 274 270 262 254 252 253 246 225 214 219 228 218 209 203 203 203 204 210 215 218 212
241 235 242 248 256 263 255 208 219 248 261 264 264 277 296 305 264 248 305 302 280 272 279 281 278 273 260 246 233 225 222 222 227 238 237 223 215 205 203 208 214 215 215 217
198 231 242 240 254 257 234 104 329 263 251 192 262 273 279 268 263 295 359 321 300 283 278 272 267 264 250 237 223 223 225 231 241 245 243 236 225 216 216 216 216 212 211 215
192 206 228 242 251 260 67 125 206 241 319 26 293 275 263 271 304 322 308 299 296 288 285 265 234 240 251 237 225 226 233 242 252 256 255 247 236 230 229 223 216 211 210 217
227 220 220 229 239 245 116 172 229 316 350 322 301 284 276 293 308 297 295 294 289 282 270 245 226 231 247 224 222 227 241 258 251 239 242 241 233 231 222 213 218 216 213 218
232 245 249 236 260 29 143 232 316 325 306 308 300 294 284 283 287 296 290 287 277 267 260 247 234 230 232 227 231 235 242 246 235 228 238 241 234 228 225 217 216 214 217 223
212 229 236 245 247 249 255 259 272 288 297 305 298 289 273 275 283 285 279 274 271 262 243 230 218 221 234 240 247 259 256 240 234 237 241 236 234 235 226 218 214 215 218 222
233 209 233 249 260 264 247 253 265 285 297 298 294 283 276 272 275 271 266 265 268 261 244 231 223 222 232 235 259 277 263 244 241 240 239 238 238 241 237 221 225 230 230 235
225 227 239 255 266 269 278 283 280 283 288 290 291 292 287 275 273 273 264 254 256 252 242 232 234 233 229 229 253 273 270 252 247 245 240 239 242 245 234 212 201 175 243 332